Regional Weather Roundup
Issued by NWS

Home | Current Version | Previous Version | Graphics & Text | Print | Product List | Glossary On
Versions: 1 2 3 4 5 6 7 8 9 10 11 12 13 14 15 16 17 18 19 20 21 22 23 24 25 26 27
000
ASUS45 KPSR 291110
RWRAZ

ARIZONA HOURLY REGIONAL WEATHER ROUNDUP
NATIONAL WEATHER SERVICE PHOENIX AZ
400 AM MST FRI APR 29 2016

NOTE: FAIR INDICATES FEW OR NO CLOUDS BELOW 12,000 FEET WITH NO
SIGNIFICANT WEATHER AND/OR OBSTRUCTIONS TO VISIBILITY.

AZZ001>003-036-291200-
NORTHWEST ARIZONA

CITY           SKY/WX    TMP DP  RH WIND       PRES   REMARKS
BULLHEAD CITY  CLEAR     57  52  82 NE3       29.87R
KINGMAN        MOCLDY    46  41  82 CALM      29.88R
$$

AZZ004>008-015-016-018-291200-
NORTH CENTRAL ARIZONA

CITY           SKY/WX    TMP DP  RH WIND       PRES   REMARKS
GRAND CANYON   CLOUDY    39  36  89 SW3       29.89R
WILLIAMS       CLOUDY    37  36  93 W6        29.97R WCI  33
PRESCOTT       CLOUDY    43  40  89 CALM      29.89R
FLAGSTAFF      CLOUDY    34  34 100 SW9       29.89R WCI  27
PAYSON         CLOUDY    46  32  57 VRB5      29.91R
PAGE           CLOUDY    46  44  93 CALM      29.83R
$$

AZZ009>014-017-291200-
NORTHEAST ARIZONA

CITY           SKY/WX    TMP DP  RH WIND       PRES   REMARKS
WINSLOW        PTCLDY    35  26  69 SW7       29.86R WCI  29
SAINT JOHNS    CLOUDY    40  23  50 W5        29.87R
WINDOW ROCK    CLEAR     28  15  58 CALM      29.86S
SHOW LOW       CLOUDY    37  16  41 S8        29.90R WCI  31
$$

AZZ023-291200-
GREATER PHOENIX AREA

CITY           SKY/WX    TMP DP  RH WIND       PRES   REMARKS
PHOENIX        MOCLDY    65  38  36 W10       29.81R
BUCKEYE        PTCLDY    55  32  41 CALM      29.84R
LUKE AFB       MOCLDY    64  38  38 S6        29.81R
DEER VALLEY    CLOUDY    63  36  36 W5        29.82R
SCOTTSDALE     CLOUDY    64  36  35 SW6       29.84R
MESA-GATEWAY   MOCLDY    59  36  41 CALM      29.84R
$$

AZZ027-028-291200-
SOUTHWEST MARICOPA COUNTY AND PINAL COUNTY

CITY           SKY/WX    TMP DP  RH WIND       PRES   REMARKS
CASA GRANDE    MOCLDY    57  34  41 S6        29.86R
GILA BEND      FAIR      60  37  42 SW7       29.83R
$$

AZZ503-504-507>509-291200-
SOUTHEAST ARIZONA

CITY           SKY/WX    TMP DP  RH WIND       PRES   REMARKS
TUCSON         CLEAR     53  30  41 SE6       29.90R
DAVIS-MONTHAN  CLEAR     50  31  47 S3        29.89R
NOGALES        CLEAR     41  30  65 E3        29.92R
SIERRA VISTA   CLEAR     45  24  44 SW6       29.93R
DOUGLAS        CLEAR     39  25  57 N3        29.93R
SAFFORD        CLEAR     49  21  33 N6        29.86R
$$

AZZ020-021-025-026-031-291200-
SOUTHWEST ARIZONA

CITY           SKY/WX    TMP DP  RH WIND       PRES   REMARKS
YUMA           CLEAR     59  44  57 W7        29.85R
$$

CAZ031-033-041-043-047-048-061-291200-
SOUTHERN CALIFORNIA

CITY           SKY/WX    TMP DP  RH WIND       PRES   REMARKS
DOWNTOWN L.A.  MOCLDY    58  50  75 E3        29.97S
L.A. AIRPORT   MOCLDY    57  50  77 VRB6      29.97S
SAN DIEGO      MOCLDY    61  48  62 S8        29.99S
BURBANK        MOCLDY    54  48  80 CALM      29.97S
ONTARIO        CLEAR     51  45  79 CALM      29.98R
RIVERSIDE      CLEAR     52  45  77 CALM      29.98S
PALM SPRINGS   CLEAR     62  42  47 CALM      29.86R
EL CENTRO NAS  CLEAR    N/A N/A N/A W10       29.86R
IMPERIAL       CLEAR     57  43  59 W10       29.84R
BLYTHE         CLEAR     62  36  37 W3        29.81R
NEEDLES        MOCLDY    61  52  72 CALM      29.84R
$$

NVZ020-UTZ003-291200-
SOUTHERN NEVADA-UTAH

CITY           SKY/WX    TMP DP  RH WIND       PRES   REMARKS
LAS VEGAS      PTCLDY    54  46  74 S6        29.81R
SALT LAKE CITY MOCLDY    44  34  67 CALM      29.85S
$$

NMZ009-TXZ055-291200-
NEW MEXICO-WEST TEXAS

CITY           SKY/WX    TMP DP  RH WIND       PRES   REMARKS
ALBUQUERQUE    LGT RAIN  43  40  89 NE16      29.85F
EL PASO        CLEAR     60  22  23 W20G30    29.82R
$$


........................KEY........................
SKY/WX - SKY CONDITION/WEATHER
TMP    - TEMPERATURE IN FAHRENHEIT
DP     - DEW POINT IN FAHRENHEIT
RH     - RELATIVE HUMIDITY IN PERCENT
WIND   - DIRECTION AND SPEED IN MILES PER HOUR (MPH)
VRB    - VARIABLE WIND DIRECTION
PRES   - MEAN SEA LEVEL PRESSURE IN INCHES OF MERCURY
         F - FALLING PRESSURE   R - RISING PRESSURE
         S - STEADY PRESSURE
VSB    - VISIBILITY IN MILES
HX     - HEAT INDEX IN FAHRENHEIT
WCI    - WIND CHILL INDEX IN FAHRENHEIT
TC     - TEMPERATURE IN CELSIUS WHICH IS ALSO KNOWN AS
         TEMPERATURE IN CENTIGRADE
AFB    - AIR FORCE BASE
         LUKE AFB IS LUKE AIR FORCE BASE
         DAVIS-MONTHAN IS DAVIS-MONTHAN AIR FORCE BASE
NAS    - NAVAL AIR STATION
         EL CENTRO NAS IS EL CENTRO NAVAL AIR STATION
N/A    - NOT AVAILABLE





USA.gov is the U.S. government's official web portal to all federal, state and local government web resources and services.